Regional Weather Roundup
Issued by NWS Upton, NY

Current Version | Previous Version | Graphics & Text | Print | Product List | Glossary On
Versions: 1 2 3 4 5 6 7 8 9 10 11 12 13 14 15 16 17 18 19 20 21 22 23 24 25 26 27 28 29 30 31 32 33 34 35 36 37 38 39 40 41 42 43 44 45 46 47 48 49 50
000
ASUS41 KOKX 240305
RWROKX
REGIONAL WEATHER ROUNDUP
NATIONAL WEATHER SERVICE NEW YORK NY
1100 PM EDT WED JUL 23 2014

NOTE: "FAIR" INDICATES FEW OR NO CLOUDS BELOW 12,000 FEET WITH NO
SIGNIFICANT WEATHER AND/OR OBSTRUCTIONS TO VISIBILITY.

NYZ071-072-176-178-NJZ106-104-240400-
NEW YORK CITY METRO AREA


CITY           SKY/WX    TMP DP  RH WIND       PRES   REMARKS
CENTRAL PARK   LGT RAIN  75  72  90 W5        29.85F
LAGUARDIA APRT LGT RAIN  79  70  74 W8        29.81F
KENNEDY INTL   CLOUDY    79  70  74 W12       29.82F
NEWARK/LIBERTY LGT RAIN  76  72  87 W9        29.82F
BRNX BOT. GARD   N/A     77  70  78 SW9       29.84R
TETERBORO      CLOUDY    82  70  66 NW7       29.81F
$$

NYZ177-179-078>081-240400-
LONG ISLAND NEW YORK

CITY           SKY/WX    TMP DP  RH WIND       PRES   REMARKS
FARMINGDALE    CLOUDY    76  70  82 SW6       29.82F
ISLIP          CLOUDY    77  70  79 SW8       29.81F
SHIRLEY        MOCLDY    76  69  79 SW10G16   29.83F
WESTHAMPTON    MOCLDY    73  69  87 SW9       29.84F
MONTAUK POINT    N/A     73  70  90 S8        29.83F
$$

NYZ052-065-067-240400-
HUDSON VALLEY

CITY           SKY/WX    TMP DP  RH WIND       PRES   REMARKS
WHITE PLAINS   CLOUDY    74  72  93 NW6       29.83F
NEWBURGH       CLOUDY    72  72 100 CALM      29.87R
MONTGOMERY     RAIN      72  70  93 N3        29.86R FOG
POUGHKEEPSIE   CLOUDY    72  70  93 CALM      29.83S
ALBANY         CLOUDY    70  66  87 VRB5      29.85R
$$

NJZ001-105-106-008-010-013-015-019>022-104-240400-
NEW JERSEY

CITY           SKY/WX    TMP DP  RH WIND       PRES   REMARKS
NEWARK/LIBERTY LGT RAIN  76  72  87 W9        29.82F
TETERBORO      CLOUDY    82  70  66 NW7       29.81F
CALDWELL       LGT RAIN  76  71  85 CALM      29.84F
MORRISTOWN     RAIN      77  72  83 CALM      29.83F
SOMERVILLE     LGT RAIN  72  70  93 CALM      29.82F
LINDEN         LGT RAIN  75  72  88 W5        29.83F
SUSSEX         CLOUDY    75  68  78 CALM      29.87S
ANDOVER          N/A     73  68  84 N3        29.86F
TRENTON        LGT RAIN  72  70  93 NW10      29.80F
MILLVILLE      CLOUDY    72  70  93 CALM      29.84F
ATLANTIC CITY  CLOUDY    77  72  84 W5        29.81F
WRIGHTSTOWN    CLOUDY    73  70  90 NW5       29.81R
TOMS RIVER     CLOUDY    75  72  88 CALM      29.81F
BELMAR         CLOUDY    77  64  65 W7        29.82F
$$

PAZ047>061-062-071-240400-
EASTERN PENNSYLVANIA

CITY           SKY/WX    TMP DP  RH WIND       PRES   REMARKS
PHILADELPHIA   CLOUDY    75  68  78 NW9       29.84F
ALLENTOWN      CLOUDY    72  70  94 CALM      29.86F FOG
SCRANTON       CLOUDY    71  63  75 N3        29.92S
$$

CTZ002-004>006-009-010-012-RIZ004-006-007-MAZ004-011-015-240400-
SOUTHERN NEW ENGLAND
 IN CT

CITY           SKY/WX    TMP DP  RH WIND       PRES   REMARKS
BRADLEY INTL   TSTM      72  70  93 W5        29.83R FOG
HARTFORD       TSTM      73  70  90 VRB3      29.83F
DANBURY        CLOUDY    71  67  87 NE3       29.85F
WTRBRY/OXFORD  CLOUDY    70  64  83 S3        29.88S
BRIDGEPORT     LGT RAIN  75  70  84 N3        29.81F
MERIDEN        LGT RAIN  72  70  93 S6        29.84F FOG
NEW HAVEN      CLOUDY    77  68  73 NW5       29.84F
CHESTER        LGT RAIN  72  70  94 CALM      29.84F
GROTON         CLOUDY    72  67  84 NW7       29.84R
WILLIMANTIC    CLOUDY    74  71  91 SE3       29.83F

 IN RI

CITY           SKY/WX    TMP DP  RH WIND       PRES   REMARKS
PROVIDENCE     CLOUDY    75  65  70 SW12G17   29.83S
BLOCK ISLAND   CLOUDY    72  70  94 SW12      29.84F
WESTERLY       CLOUDY    73  68  84 S8        29.83F

 IN MA

CITY           SKY/WX    TMP DP  RH WIND       PRES   REMARKS
BOSTON         CLOUDY    78  69  73 SW14      29.79S
WORCESTER      LGT RAIN  68  67  96 W10       29.85F
WESTFIELD      RAIN      71  69  93 SW6       29.84R
PROVINCETOWN   CLOUDY    70  70 100 SW13      29.81F
NANTUCKET      PTCLDY    69  68  96 SW10      29.85F
$$

ANZ330-335-338-340-345-350-353-355-240400-
COASTAL MARINE OBSERVATIONS


STATION/POSITION TIME  SKY/WX   TEMP    WIND        PRES    VSBY  WAVE
                                AIR SEA DIR/SP/G                  HT/PER
                 (UTC)          (F)     (DEG/KT/KT) (MB)    (MI)  (FT/S)
NY HARB ENTRANCE NOT AVBL
4S FIRE IS       NOT AVBL
23SW MTP         0300            72 70              1009.6          3/ 5
HUDSON CANYON    0300            75 74  220/ 12/ 16 1010.6          3/ 9
EXECUTION ROCKS  0300            74 71  140/  2/  4   N/A
WESTERN LI SOUND 0300            76     260/  6/  8   N/A           1
CENTRAL LI SOUND 0200            75 73  250/ 12/ 16   N/A           3/ 4
EASTERN LI SOUND 0200            70 67  190/  6/  8   N/A
ROBBINS REEF     0300            77     280/ 10/ 11   N/A
$$


>>>>>>>>>>>>>>>>>>>>>>>>>>>> KEY <<<<<<<<<<<<<<<<<<<<<<<<<<<
>                                                          <
>     SKY/WX - SKY CONDITION/PRESENT WEATHER               <
>     TMP    - TEMPERATURE IN FAHRENHEIT                   <
>     DP     - DEWPOINT IN FAHRENHEIT                      <
>     RH     - RELATIVE HUMIDITY IN PERCENT                <
>     WIND   - DIRECTION AND SPEED IN MPH                  <
>     PRES   - MEAN SEA LEVEL PRESSURE IN INCHES OF HG     <
>     WCI    - WIND CHILL INDEX                            <
>     VSB    - VISIBILITY IN MILES                         <
>     HX     - HEAT INDEX                                  <
>     TC     - TEMPERATURE IN CELSIUS                      <
>     VRB    - VARIABLE WIND DIRECTION                     <
>                                                          <
>>>>>>>>>>>>>>>>>>>>>>>>>>>> KEY <<<<<<<<<<<<<<<<<<<<<<<<<<<




USA.gov is the U.S. government's official web portal to all federal, state and local government web resources and services.